Wind_Speed
5 5 5 5 5 6 6 7 7 8 8 8 8 9 9 8 8 9 9 9 9 10 10 10 9 10 9 10 10 10 10 11 11 11 10 10 9 9 9 9 10 10 10
5 5 6 5 6 6 7 7 8 8 8 9 10 9 9 9 9 9 9 9 9 10 10 11 11 11 11 11 11 11 11 12 12 11 11 10 10 10 9 10 10 11 11
5 6 6 6 6 7 7 7 8 9 9 10 10 10 10 10 10 11 11 10 10 11 12 12 11 11 12 12 12 12 12 12 12 12 12 12 12 12 12 11 12 12 12
6 6 7 7 7 8 9 9 9 9 9 9 10 10 11 11 11 12 12 12 12 12 12 12 12 12 12 12 12 12 12 13 13 13 13 14 14 14 14 13 13 13 13
7 7 8 8 8 8 8 8 9 9 9 9 10 10 10 11 12 12 12 13 13 12 12 11 12 13 13 13 13 13 13 13 14 14 15 15 15 15 15 15 15 14 15
9 9 9 9 9 8 9 8 8 9 9 10 10 11 11 12 13 13 14 14 14 13 13 12 13 13 14 14 14 14 14 14 14 15 15 16 16 16 15 15 16 16 16
10 10 9 10 10 10 9 9 9 10 10 10 11 12 12 13 14 14 14 14 14 14 14 14 14 15 15 15 15 15 15 15 15 15 15 16 17 17 17 17 17 17 17
10 10 9 11 11 11 11 11 11 11 11 11 11 12 13 14 14 15 14 14 15 16 17 16 16 16 16 16 16 17 17 17 16 16 17 17 18 18 18 18 19 19 19
10 11 11 11 12 11 12 12 12 12 12 12 12 13 13 13 14 14 15 16 16 16 17 18 18 17 17 18 18 18 18 18 19 19 19 19 19 19 19 19 19 19 20
12 13 13 13 13 12 12 12 14 13 13 13 13 14 13 13 14 14 16 16 16 16 17 18 19 19 19 19 19 20 20 19 19 20 20 20 20 20 20 20 19 20 20
13 13 13 13 12 12 13 13 14 14 14 14 14 14 14 14 14 15 15 16 17 17 17 18 19 20 20 20 20 20 21 22 22 23 22 22 21 21 21 20 21 21 21
14 14 14 13 13 14 14 15 15 15 15 16 15 15 16 15 15 16 16 17 17 18 18 19 19 20 21 21 21 21 22 23 24 24 23 23 22 22 21 21 21 21 21
16 15 15 15 15 16 16 16 17 17 17 17 16 17 17 17 17 17 17 17 18 19 19 20 21 21 21 22 22 22 22 23 24 24 24 23 23 23 23 23 23 22 22
17 18 18 17 17 18 18 17 17 17 17 17 17 17 17 18 18 18 18 18 19 19 20 21 22 22 22 22 22 22 22 23 24 24 24 24 25 25 25 25 25 25 25
18 18 19 19 19 19 19 18 18 18 18 18 18 17 18 18 18 18 18 18 19 20 20 21 22 23 23 22 23 23 22 22 23 24 25 25 25 25 26 26 26 26 26
19 20 20 20 20 20 20 20 20 20 19 19 18 18 18 19 19 19 19 19 20 21 21 22 22 22 23 23 23 22 22 23 23 24 25 25 25 26 26 26 26 26 26
20 19 19 20 21 21 21 20 20 20 20 20 20 20 21 21 21 21 20 20 20 21 21 21 22 23 24 25 25 25 25 25 25 25 25 26 26 27 26 27 27 27 27
22 21 21 21 22 21 21 22 22 22 22 22 22 22 22 22 21 22 21 21 21 21 22 22 22 23 24 25 26 25 25 25 25 25 26 26 26 27 28 28 28 29 28
24 23 22 23 23 23 23 23 23 22 23 23 22 22 22 22 22 22 22 23 22 23 23 23 23 24 24 25 25 25 25 25 25 26 26 27 27 27 28 29 29 29 29
24 24 24 25 24 24 24 24 24 23 23 24 24 24 24 23 23 23 24 24 24 24 24 24 25 26 26 26 26 26 27 27 27 27 27 28 29 28 28 29 30 30 31
26 26 26 26 26 25 25 25 25 25 25 25 25 24 24 24 23 23 24 24 24 25 25 26 26 26 27 27 27 28 28 29 29 29 29 29 29 30 30 30 30 30 30
27 27 27 28 27 26 26 26 26 26 25 26 25 25 25 25 23 23 25 26 26 26 27 27 27 27 28 28 28 29 29 29 29 30 30 30 31 31 31 31 31 31 31
27 28 27 27 25 25 25 26 25 25 25 24 24 24 24 23 23 24 25 26 26 27 28 28 29 29 29 29 29 29 30 31 31 31 31 31 31 32 31 31 32 31 31
28 28 28 26 25 25 26 25 25 25 25 24 24 24 24 25 25 25 25 25 26 26 27 28 29 28 29 29 30 30 30 31 31 31 32 31 31 31 32 32 32 32 32
28 27 27 26 27 27 26 25 25 25 25 25 25 25 25 25 25 25 25 25 25 25 27 28 28 29 29 30 30 30 30 30 30 31 31 31 31 31 31 31 32 32 32
27 27 26 26 26 26 26 26 26 25 25 25 25 25 25 25 24 24 25 25 25 25 25 26 27 28 29 29 29 30 30 30 30 30 31 31 31 31 31 31 31 31 32
Wind_Direction
310 308 306 301 292 283 275 268 265 259 260 258 257 257 258 257 261 259 253 255 249 243 242 236 231 228 229 226 229 234 234 234 236 239 241 243 246 252 259 263 264 268 272
312 309 310 304 296 286 278 272 266 262 261 260 259 259 255 255 257 258 254 252 248 245 241 239 239 233 229 231 233 237 235 235 237 239 242 244 248 252 258 262 264 268 271
303 303 304 299 294 289 279 272 263 260 262 262 258 256 253 253 257 257 254 249 250 248 246 239 240 240 233 234 236 236 236 235 236 240 244 246 250 255 257 260 262 266 269
293 298 298 297 295 291 285 276 265 260 260 260 258 258 257 256 255 257 255 253 253 251 245 237 238 240 238 239 239 237 240 241 242 244 248 250 253 255 256 259 261 265 267
288 291 293 295 296 296 292 285 271 264 262 261 261 260 261 257 254 257 257 254 252 250 242 239 241 242 240 239 238 240 246 247 246 248 251 253 255 256 257 259 261 263 267
288 285 291 293 295 297 297 294 280 268 265 262 264 266 266 262 259 259 260 257 251 246 243 245 247 247 242 239 241 244 247 249 249 252 255 256 258 258 261 262 263 264 266
287 286 286 287 288 290 290 286 278 275 270 267 268 269 266 265 260 261 260 255 249 246 246 248 250 248 247 243 245 248 249 252 253 254 256 259 258 259 262 263 265 266 267
284 282 285 289 289 284 282 280 276 274 273 272 274 272 269 266 263 261 258 253 252 251 250 249 249 247 248 248 249 250 251 254 254 256 258 260 261 263 264 266 266 266 267
280 281 285 289 289 284 281 278 274 274 274 273 275 273 268 268 261 260 257 254 253 253 252 251 250 251 252 255 255 255 256 256 257 258 258 259 263 266 267 268 268 266 265
283 283 285 285 282 280 280 279 274 273 273 271 271 272 272 269 264 262 257 255 256 256 255 254 253 253 255 256 257 258 258 259 259 258 258 260 262 265 267 268 268 268 267
284 283 286 284 280 277 276 276 275 272 271 271 271 271 271 268 267 265 261 259 257 258 259 257 257 254 254 256 258 258 260 259 260 259 260 261 263 266 266 268 269 269 268
283 284 280 278 279 278 277 275 274 272 271 272 272 272 271 268 269 265 264 262 261 260 259 258 259 256 257 258 260 260 260 261 262 262 263 264 266 267 268 268 269 269 268
279 282 282 278 278 278 279 278 275 275 275 273 273 272 271 267 267 265 264 263 262 261 261 260 260 261 261 261 261 262 263 262 263 264 265 264 266 269 269 269 269 269 270
276 280 281 278 278 277 278 277 274 275 277 277 277 275 272 270 269 269 266 264 262 262 262 263 263 264 265 262 262 264 264 265 264 265 265 266 268 269 270 270 269 270 271
276 278 280 280 278 277 277 276 274 275 276 277 277 277 275 273 272 271 269 266 264 263 263 263 264 264 265 266 266 266 266 266 267 267 267 268 268 268 270 270 269 270 271
275 276 277 280 280 279 277 276 275 274 273 274 275 275 276 274 271 270 270 268 266 266 265 265 265 265 266 268 269 266 266 268 269 268 268 268 269 270 270 270 270 271 272
275 276 276 279 279 278 276 275 274 274 275 274 273 273 275 275 271 269 270 271 271 269 268 266 267 266 266 269 270 269 268 268 269 270 270 270 270 270 270 270 270 270 271
277 277 277 279 279 277 276 275 275 275 274 273 272 273 274 274 273 270 270 271 271 270 269 268 268 267 267 268 270 271 270 270 271 271 271 271 271 271 271 270 271 271 271
276 279 279 278 277 275 274 274 274 276 275 274 271 272 273 273 272 270 269 269 269 270 270 270 269 268 268 269 268 269 271 271 271 272 271 272 273 273 272 271 271 271 271
275 277 276 276 274 272 272 272 272 274 276 275 274 271 272 273 272 270 269 269 269 269 270 272 271 271 270 269 268 269 270 271 273 273 272 272 273 273 273 273 272 272 271
274 276 275 274 273 273 271 271 273 274 274 275 275 272 271 272 272 271 271 271 270 271 271 272 272 272 271 270 269 270 270 271 272 273 273 273 274 273 273 274 274 274 272
276 277 277 273 272 270 270 271 272 273 274 273 273 273 271 270 271 274 273 272 270 270 271 272 272 272 272 272 271 271 272 272 272 273 273 273 274 274 274 274 274 275 274
276 277 276 274 271 269 268 269 270 272 271 271 271 271 272 272 273 275 275 274 272 272 272 272 272 273 273 272 272 273 273 273 273 273 273 273 274 276 275 274 274 275 274
275 276 275 274 271 269 268 268 268 268 269 269 270 271 272 272 273 276 277 278 276 275 275 274 273 272 273 273 273 273 274 273 273 273 273 273 274 276 275 274 275 275 274
274 274 274 272 271 269 269 269 269 267 268 269 270 271 272 274 275 276 277 279 278 278 277 276 275 274 274 274 273 275 274 273 273 273 273 274 274 274 274 274 275 275 273
275 273 272 273 271 268 267 268 267 268 268 268 270 270 272 274 275 275 276 278 279 279 280 279 278 277 276 276 276 277 275 274 273 273 272 274 275 274 272 273 275 275 274
Height
5868 5868 5868 5868 5868 5868 5868 5868 5867 5868 5869 5868 5869 5870 5871 5871 5872 5872 5873 5873 5874 5874 5875 5876 5877 5878 5879 5880 5882 5882 5883 5884 5885 5886 5887 5888 5888 5889 5889 5890 5890 5890 5890
5867 5867 5866 5866 5866 5866 5866 5866 5866 5867 5867 5867 5868 5868 5869 5870 5870 5871 5871 5872 5872 5873 5873 5874 5875 5876 5877 5878 5880 5881 5882 5882 5883 5884 5885 5886 5887 5887 5887 5887 5888 5888 5888
5865 5865 5865 5865 5864 5864 5864 5864 5865 5865 5865 5865 5866 5866 5867 5868 5868 5869 5869 5870 5870 5871 5872 5872 5873 5874 5875 5876 5877 5878 5879 5880 5881 5882 5883 5883 5884 5884 5885 5885 5885 5885 5885
5864 5864 5864 5863 5863 5863 5862 5862 5862 5862 5863 5863 5864 5864 5865 5865 5866 5866 5867 5867 5868 5869 5869 5870 5871 5872 5872 5874 5875 5876 5877 5878 5878 5879 5880 5881 5881 5882 5882 5882 5882 5882 5882
5862 5862 5862 5862 5861 5861 5860 5860 5860 5860 5860 5861 5861 5862 5862 5862 5863 5864 5864 5865 5866 5866 5867 5868 5868 5869 5870 5871 5872 5873 5874 5875 5875 5876 5877 5878 5878 5878 5879 5879 5879 5879 5879
5859 5859 5859 5859 5859 5859 5858 5858 5858 5858 5858 5859 5859 5859 5859 5860 5860 5861 5861 5862 5862 5863 5864 5865 5866 5866 5867 5868 5869 5870 5871 5871 5872 5872 5873 5874 5874 5875 5875 5875 5875 5875 5876
5857 5857 5857 5857 5857 5856 5856 5856 5856 5856 5856 5856 5856 5856 5856 5856 5857 5857 5858 5858 5859 5860 5861 5862 5863 5863 5864 5865 5866 5867 5868 5868 5868 5869 5870 5870 5870 5871 5871 5871 5871 5871 5871
5854 5854 5854 5854 5854 5853 5853 5853 5853 5853 5853 5853 5853 5853 5853 5854 5854 5854 5854 5855 5856 5856 5857 5858 5859 5860 5861 5861 5862 5863 5864 5864 5865 5865 5866 5866 5866 5867 5867 5867 5867 5867 5867
5852 5852 5851 5851 5850 5850 5850 5850 5850 5850 5850 5849 5849 5850 5850 5850 5850 5850 5850 5851 5852 5852 5853 5854 5855 5856 5857 5857 5858 5859 5859 5860 5860 5861 5861 5861 5862 5862 5862 5862 5862 5862 5862
5849 5848 5848 5847 5847 5847 5847 5847 5847 5847 5846 5846 5846 5846 5846 5846 5846 5846 5846 5847 5847 5848 5849 5850 5850 5851 5852 5853 5854 5854 5855 5855 5855 5856 5856 5857 5857 5857 5857 5857 5857 5857 5857
5845 5844 5844 5844 5843 5844 5844 5843 5843 5843 5843 5843 5842 5842 5842 5842 5842 5842 5842 5843 5843 5844 5844 5845 5846 5846 5847 5848 5848 5849 5849 5849 5850 5851 5851 5851 5852 5852 5852 5852 5852 5852 5852
5842 5841 5840 5840 5840 5840 5840 5840 5839 5839 5839 5839 5838 5838 5838 5838 5838 5838 5838 5838 5838 5839 5839 5840 5841 5841 5842 5843 5843 5844 5844 5844 5845 5845 5845 5846 5846 5846 5846 5846 5846 5846 5846
5838 5837 5837 5837 5837 5836 5836 5836 5835 5835 5834 5834 5834 5834 5834 5834 5833 5833 5833 5834 5834 5834 5834 5835 5835 5836 5836 5837 5838 5838 5838 5838 5839 5839 5839 5840 5840 5840 5840 5840 5840 5840 5840
5833 5833 5833 5832 5832 5832 5831 5831 5830 5830 5829 5829 5829 5829 5829 5829 5828 5828 5828 5829 5829 5829 5829 5830 5830 5830 5831 5831 5831 5832 5832 5832 5833 5833 5833 5833 5834 5834 5834 5834 5834 5834 5834
5828 5828 5828 5827 5827 5827 5826 5826 5826 5825 5825 5825 5824 5824 5824 5823 5823 5823 5823 5823 5824 5824 5824 5824 5824 5824 5825 5825 5825 5826 5826 5826 5826 5827 5827 5827 5827 5827 5827 5827 5827 5827 5827
5823 5823 5823 5822 5821 5821 5821 5821 5821 5820 5820 5819 5819 5819 5819 5818 5818 5818 5817 5817 5817 5818 5818 5818 5818 5818 5818 5819 5819 5819 5820 5820 5820 5820 5820 5820 5820 5820 5820 5819 5819 5819 5819
5817 5817 5817 5816 5816 5816 5815 5815 5815 5815 5814 5814 5813 5813 5813 5813 5812 5812 5812 5812 5811 5812 5812 5812 5812 5812 5812 5812 5812 5812 5813 5813 5813 5813 5813 5813 5813 5812 5812 5812 5812 5812 5811
5812 5811 5811 5811 5810 5810 5810 5809 5809 5809 5808 5808 5808 5807 5807 5807 5806 5806 5806 5806 5805 5805 5806 5806 5806 5806 5806 5806 5806 5805 5805 5805 5806 5806 5805 5805 5805 5805 5805 5804 5804 5804 5803
5805 5804 5804 5804 5804 5804 5804 5803 5803 5803 5802 5801 5801 5801 5801 5800 5800 5799 5799 5799 5799 5799 5799 5799 5799 5799 5799 5799 5799 5799 5798 5798 5798 5798 5798 5798 5797 5797 5797 5796 5796 5795 5795
5798 5798 5798 5797 5796 5797 5797 5796 5796 5796 5796 5795 5795 5794 5794 5794 5793 5793 5793 5792 5792 5792 5792 5792 5792 5792 5792 5792 5792 5791 5791 5791 5791 5791 5790 5790 5789 5789 5788 5788 5787 5787 5786
5791 5791 5790 5790 5789 5789 5789 5789 5789 5789 5789 5789 5788 5788 5787 5787 5786 5786 5785 5785 5785 5785 5785 5785 5785 5785 5784 5784 5784 5784 5784 5783 5783 5783 5782 5782 5781 5781 5780 5779 5779 5778 5777
5783 5783 5782 5782 5781 5782 5782 5782 5782 5782 5782 5781 5781 5781 5780 5780 5779 5779 5778 5778 5778 5778 5778 5778 5777 5777 5776 5776 5776 5775 5775 5775 5775 5775 5774 5773 5772 5771 5771 5770 5770 5769 5768
5775 5775 5774 5774 5774 5774 5774 5774 5774 5774 5774 5774 5774 5773 5773 5773 5772 5772 5771 5770 5770 5770 5770 5770 5769 5768 5768 5767 5767 5767 5766 5766 5766 5765 5765 5764 5763 5763 5762 5761 5760 5759 5759
5767 5767 5767 5766 5766 5766 5766 5767 5767 5767 5767 5767 5766 5766 5766 5766 5765 5765 5764 5763 5763 5762 5762 5761 5760 5760 5759 5758 5758 5758 5757 5757 5756 5756 5756 5756 5755 5754 5753 5752 5751 5750 5749
5759 5759 5759 5758 5758 5758 5759 5759 5759 5759 5760 5759 5759 5759 5759 5758 5758 5757 5757 5756 5755 5754 5753 5752 5752 5751 5750 5749 5749 5749 5748 5748 5747 5746 5746 5746 5745 5744 5743 5743 5742 5740 5740
5750 5750 5750 5750 5750 5750 5751 5751 5751 5752 5752 5752 5752 5751 5751 5751 5750 5750 5749 5749 5748 5746 5745 5744 5743 5742 5741 5740 5740 5739 5739 5738 5738 5737 5736 5736 5735 5734 5734 5733 5732 5731 5730